カタログに戻る

STARLINK-34848

運用中通信SSO
NORAD 65402·PAYLOAD·🇺🇸 United States

打ち上げ Aug 30, 2025 から Vandenberg Space Force Base

Loading…

次のパス (今後24時間)

TLE

最新Source: CelesTrak SupGP

元期: Sep 14, 2026, 22:40 UTC

1 65402C 25191Z   26257.94493056  .00059672  00000+0  18530-2 0  2571
2 65402  97.2841 124.0955 0001892  92.4157 141.1157 15.33397141    12

AllMySatでSTARLINK-34848をリアルタイム追跡

Download on the App Store